This is the latest recevied weather packets stored in our database for station/object W7TRD. If no packets are shown the sender has not sent any weather packets the latest 10 day(s).
| Time | Temp. | Humidity | Pressure | Rain* | Wind** | Luminosity | Snow |
|---|---|---|---|---|---|---|---|
| 1787870021 | 24.44° C | 51% | 1018.8 hPa | 0 mm | - | 109 W/m² | - |
| 1787869720 | 23.89° C | 53% | 1018.8 hPa | 0 mm | - | 123 W/m² | - |
| 1787869420 | 24.44° C | 54% | 1018.9 hPa | 0 mm | - | 132 W/m² | - |
| 1787869115 | 24.44° C | 52% | 1018.9 hPa | 0 mm | - | 100 W/m² | - |
| 1787868814 | 24.44° C | 51% | 1018.9 hPa | 0 mm | - | 125 W/m² | - |
| 1787868512 | 24.44° C | 51% | 1019.1 hPa | 0 mm | - | 350 W/m² | - |
| 1787868211 | 23.89° C | 52% | 1018.9 hPa | 0 mm | - | 714 W/m² | - |
| 1787867909 | 24.44° C | 51% | 1019 hPa | 0 mm | - | 249 W/m² | - |
| 1787867603 | 25° C | 51% | 1018.9 hPa | 0 mm | - | 135 W/m² | - |
| 1787867302 | 25° C | 51% | 1018.8 hPa | 0 mm | - | 689 W/m² | - |
| 1787867006 | 25.56° C | 52% | 1019.1 hPa | 0 mm | - | 694 W/m² | - |
| 1787866694 | 25° C | 53% | 1018.9 hPa | 0 mm | - | 685 W/m² | - |
| 1787866392 | 25.56° C | 51% | 1019.1 hPa | 0 mm | - | 690 W/m² | - |
| 1787866087 | 25° C | 53% | 1019.2 hPa | 0 mm | - | 698 W/m² | - |
| 1787865782 | 23.89° C | 53% | 1019.3 hPa | 0 mm | - | 714 W/m² | - |
| 1787865477 | 24.44° C | 53% | 1019.5 hPa | 0 mm | - | 753 W/m² | - |
| 1787865172 | 23.33° C | 57% | 1019.4 hPa | 0 mm | - | 897 W/m² | - |
| 1787864869 | 23.33° C | 56% | 1019.4 hPa | 0 mm | - | 352 W/m² | - |
| 1787864568 | 23.33° C | 59% | 1019.4 hPa | 0 mm | - | 513 W/m² | - |
| 1787864263 | 22.78° C | 58% | 1019.4 hPa | 0 mm | - | 301 W/m² | - |
| 1787863958 | 23.33° C | 56% | 1019.3 hPa | 0 mm | - | 250 W/m² | - |
| 1787863656 | 22.78° C | 58% | 1019.6 hPa | 0 mm | - | 238 W/m² | - |
| 1787863355 | 22.78° C | 56% | 1019.5 hPa | 0 mm | - | 195 W/m² | - |
| 1787863052 | 22.78° C | 56% | 1019.4 hPa | 0 mm | - | 174 W/m² | - |
| 1787862752 | 22.78° C | 58% | 1019.5 hPa | 0 mm | - | 145 W/m² | - |
* Rain latest hour (hover to see other rain measurements)
** Current wind speed in m/s (hover to see current wind gust speed)